This demonstration page uses our WeatherBlox Daily Observations layout. Learn more.

Left ArrowRight Arrow

39.51506, -84.39828

Hourly Observations for January 15, 2021

Temp ( °F °C ) Dew Point ( °F °C ) Humidity (%) Winds ( mph kmh ) Pressure ( in mb ) Visibility ( mi km ) Precip ( " mm )
12:15 am 00:15 Cloudy 47 8.1 33 0.6 59 59 S 7 11 29.60 1002 10 16 N/A
12:35 am 00:35 Cloudy 46 8 33 0.7 60 60 S 6 9 29.59 1002 10 16 N/A
12:55 am 00:55 Cloudy 47 8.1 33 0.7 60 60 S 12 19 29.58 1002 10 16 N/A
1:15 am 01:15 Cloudy 47 8.1 33 0.7 60 60 SSW 10 17 29.58 1002 10 16 N/A
1:35 am 01:35 Cloudy 46 8 33 0.6 60 60 S 10 17 29.58 1002 10 16 N/A
1:55 am 01:55 Cloudy 46 7.9 33 0.8 61 61 SSW 10 17 29.58 1002 10 16 N/A
2:15 am 02:15 Cloudy 46 7.9 33 0.8 61 61 SSW 9 15 29.57 1001 10 16 N/A
2:35 am 02:35 Cloudy 46 7.9 34 1.3 63 63 SSW 10 17 29.58 1002 10 16 N/A
2:55 am 02:55 Cloudy 46 7.6 34 1.1 64 64 S 7 11 29.58 1002 10 16 N/A
3:15 am 03:15 Cloudy 45 7.1 35 1.5 68 68 WSW 10 17 29.59 1002 10 16 N/A
3:35 am 03:35 Cloudy 44 6.8 37 2.6 75 75 WSW 7 11 29.58 1002 10 16 N/A
3:55 am 03:55 Cloudy 44 6.6 38 3.3 80 80 WSW 8 13 29.58 1002 10 16 N/A
4:15 am 04:15 Cloudy 44 6.8 38 3.6 80 80 SW 10 17 29.57 1001 10 16 N/A
4:35 am 04:35 Cloudy with Mist and Fog 43 6.2 39 4.1 87 87 WSW 15 24 29.57 1001 5 8 N/A
4:55 am 04:55 Cloudy with Drizzle 40 4.4 39 3.7 95 95 WSW 16 26 29.58 1002 4 6 N/A
5:15 am 05:15 Cloudy with Light Rain 38 3.2 37 2.7 97 97 W 13 20 29.58 1002 3 5 N/A
5:35 am 05:35 Cloudy with Light Rain 37 3 37 2.6 97 97 WSW 9 15 29.58 1002 7 11 0.01 0.25
5:55 am 05:55 Cloudy with Light Rain 37 2.7 36 2.4 98 98 WSW 8 13 29.59 1002 7 11 0.01 0.25
6:15 am 06:15 Cloudy with Light Rain 36 2.3 35 1.9 97 97 WSW 9 15 29.59 1002 10 16 0.01 0.25
7:40 am 07:40 Cloudy with Light Rain 36 2.1 35 1.9 99 99 S 5 7 29.61 1003 10 16 N/A
7:55 am 07:55 Cloudy with Light Rain 36 2.2 36 2.1 99 99 S 6 9 29.60 1002 10 16 N/A
8:15 am 08:15 Cloudy with Light Rain 36 2.4 36 2.2 99 99 S 7 11 29.60 1002 10 16 N/A
8:35 am 08:35 Cloudy 37 2.6 36 2.4 99 99 S 7 11 29.60 1002 10 16 N/A
8:55 am 08:55 Cloudy with Light Rain 37 2.6 36 2.3 98 98 SSW 10 17 29.61 1003 7 11 N/A
9:15 am 09:15 Cloudy 37 2.7 36 2 95 95 SSW 14 22 29.61 1003 10 16 N/A
9:35 am 09:35 Cloudy 37 2.8 35 1.6 92 92 SSW 15 24 29.62 1003 10 16 N/A
9:55 am 09:55 Partly Cloudy 37 2.6 34 1.2 91 91 SW 13 20 29.63 1003 10 16 N/A
10:15 am 10:15 Sunny 37 2.8 33 0.7 86 86 WSW 13 20 29.63 1003 10 16 N/A
10:35 am 10:35 Sunny 38 3.3 32 undefined 79 79 SW 13 20 29.63 1003 10 16 N/A
10:55 am 10:55 Partly Cloudy 39 4 31 -0.6 72 72 SSW 13 20 29.62 1003 10 16 N/A
11:15 am 11:15 Sunny 40 4.3 30 -0.9 69 69 SSW 15 24 29.62 1003 10 16 N/A
11:35 am 11:35 Partly Cloudy 40 4.7 29 -1.9 63 63 SW 15 24 29.61 1003 10 16 N/A
11:55 am 11:55 Sunny 41 5.1 29 -1.9 61 61 SW 16 26 29.61 1003 10 16 N/A
12:15 pm 12:15 Sunny 42 5.5 28 -2.5 57 57 SW 13 20 29.60 1002 10 16 N/A
12:35 pm 12:35 Mostly Cloudy 42 5.3 27 -2.7 57 57 SW 17 28 29.60 1002 10 16 N/A
12:55 pm 12:55 Partly Cloudy 42 5.8 26 -3.6 51 51 SW 21 33 29.59 1002 10 16 N/A
1:15 pm 13:15 Mostly Cloudy 42 5.8 25 -3.9 50 50 SSW 17 28 29.58 1002 10 16 N/A
1:35 pm 13:35 Partly Cloudy 44 6.5 25 -3.9 48 48 SSW 17 28 29.58 1002 10 16 N/A
1:55 pm 13:55 Mostly Cloudy 44 6.9 24 -4.7 44 44 S 20 31 29.58 1002 10 16 N/A
2:15 pm 14:15 Mostly Cloudy 44 6.6 24 -4.3 46 46 SSW 14 22 29.58 1002 10 16 N/A
2:35 pm 14:35 Cloudy 45 7 23 -4.8 43 43 SSW 17 28 29.58 1002 10 16 N/A
2:55 pm 14:55 Cloudy 44 6.7 24 -4.5 45 45 SSW 20 31 29.59 1002 10 16 N/A
3:15 pm 15:15 Mostly Cloudy 44 6.4 23 -4.9 45 45 SW 17 28 29.59 1002 10 16 N/A
3:35 pm 15:35 Cloudy 40 4.7 26 -3.6 55 55 WSW 9 15 29.61 1003 10 16 N/A
3:55 pm 15:55 Cloudy 41 4.8 29 -1.8 63 63 SSW 7 11 29.62 1003 10 16 N/A
4:15 pm 16:15 Mostly Cloudy 41 5 27 -3 57 57 S 9 15 29.62 1003 10 16 N/A
4:35 pm 16:35 Mostly Cloudy 40 4.6 27 -3 58 58 S 9 15 29.62 1003 10 16 N/A
4:55 pm 16:55 Cloudy 40 4.3 25 -3.7 56 56 S 8 13 29.63 1003 10 16 N/A
5:15 pm 17:15 Cloudy 39 4 25 -3.9 57 57 SSW 9 15 29.64 1004 10 16 N/A
5:35 pm 17:35 Cloudy 38 3.3 25 -3.9 60 60 SSW 7 11 29.66 1004 10 16 N/A
5:55 pm 17:55 Cloudy 38 3.3 26 -3.5 61 61 S 8 13 29.66 1004 10 16 N/A
6:15 pm 18:15 Cloudy 38 3.5 26 -3.4 61 61 S 6 9 29.67 1005 10 16 N/A
6:35 pm 18:35 Cloudy 37 2.9 26 -3.1 65 65 SW 3 6 29.68 1005 10 16 N/A
6:55 pm 18:55 Cloudy 36 2.4 27 -2.8 69 69 N N/A 29.68 1005 10 16 N/A
7:15 pm 19:15 Mostly Cloudy 35 1.6 28 -2 77 77 SSW 3 6 29.69 1005 10 16 N/A
7:35 pm 19:35 Cloudy 35 1.7 28 -2.5 74 74 N N/A 29.68 1005 10 16 N/A
7:55 pm 19:55 Mostly Cloudy 35 1.5 28 -2.3 76 76 S 3 6 29.68 1005 10 16 N/A
8:15 pm 20:15 Mostly Cloudy 33 0.3 29 -1.4 89 89 N N/A 29.68 1005 10 16 N/A
8:35 pm 20:35 Partly Cloudy 31 -0.3 28 -2 88 88 N N/A 29.69 1005 10 16 N/A
8:55 pm 20:55 Cloudy 31 -0.7 28 -2.1 90 90 N N/A 29.69 1005 10 16 N/A
9:15 pm 21:15 Cloudy 31 -0.4 29 -1.8 90 90 N N/A 29.69 1005 10 16 N/A
9:35 pm 21:35 Cloudy 33 0.5 29 -1.9 84 84 WNW 3 6 29.68 1005 10 16 N/A
9:55 pm 21:55 Cloudy 31 -0.6 29 -1.7 92 92 N N/A 29.69 1005 10 16 N/A
10:15 pm 22:15 Cloudy 33 0.6 28 -2 83 83 N N/A 29.68 1005 10 16 N/A
10:35 pm 22:35 Mostly Cloudy 33 0.4 29 -1.9 85 85 N N/A 29.67 1005 10 16 N/A
10:55 pm 22:55 Cloudy 29 -1.4 28 -2.1 95 95 N N/A 29.68 1005 10 16 N/A
11:15 pm 23:15 Cloudy 30 -1 29 -1.9 94 94 N N/A 29.68 1005 10 16 N/A
11:35 pm 23:35 Cloudy 30 -1.3 28 -2 95 95 N N/A 29.67 1005 10 16 N/A
11:55 pm 23:55 Cloudy 29 -1.7 28 -2.2 96 96 N N/A 29.67 1005 10 16 N/A

Powered by AerisWeather